Location: Helsinki
(60.1699°N, 24.9384°E)
Time: 16:09:48
(UTC+02:00)

A-11 Canister half - Pass Details

Date: 05 November 2020
Orbit: 1525 x 1684 km, 47.3° (Epoch: 29 November)

Event Time Altitude Azimuth Distance (km) Brightness Sun altitude
Rises 19:38:34 0° 278° (W) 4,722 12.9 -25.5°
Reaches altitude 10° 19:43:55 10° 253° (WSW) 3,711 11.8 -26.2°
Maximum altitude 19:47:36 13° 229° (SW) 3,463 11.2 -26.6°
Drops below altitude 10° 19:51:16 10° 205° (SSW) 3,689 11.1 -27.0°
Sets 19:56:34 0° 180° (S) 4,667 11.4 -27.7°
